Location: Brno
(49.2000°N, 16.6330°E)
Time: 11:32:58
(UTC+02:00)

Daily predictions for brighter satellites

Satellite Brightness Start Highest point End
(mag) Time Altitude Azimuth Time Altitude Azimuth Time Altitude Azimuth
CZ-4C R/B 3.0 18:10:47 10° S 18:15:22 31° ESE 18:20:31 10° NE
Cosmos 1626 2.6 18:12:12 10° NNW 18:15:57 69° W 18:19:39 10° S
AQUARIUS 4.2 18:13:04 10° SSE 18:17:35 89° W 18:22:07 10° NNW
APEX 3.6 18:15:28 10° S 18:17:58 26° ESE 18:20:21 10° NE
Cosmos 2227 Rocket 3.8 18:18:28 10° ESE 18:20:55 13° E 18:23:22 10° ENE
SL-8 Rocket 4.3 18:15:28 10° SSW 18:21:40 75° W 18:27:59 10° N
SL-16 R/B 3.6 18:18:12 10° N 18:22:25 21° NE 18:26:38 10° E
SL-8 R/B 3.9 18:18:19 10° WSW 18:23:07 69° SSE 18:27:55 10° E
Cosmos 1048 Rocket 4.5 18:18:47 10° S 18:23:30 38° ESE 18:28:14 10° NE
COSMO-SKYMED 1 3.4 18:20:17 10° NE 18:24:05 29° E 18:27:52 10° SSE
CZ-4 R/B 1.4 18:20:24 10° SSE 18:24:34 88° ENE 18:28:42 10° NNW
Cosmos 1420 Rocket 4.3 18:20:26 10° NNW 18:25:46 78° WSW 18:31:03 10° SSE
ATLAS 5 CENTAUR R/B 3.9 18:22:14 10° NW 18:25:56 19° N 18:29:55 10° NE
Cosmos 2360 Rocket 3.6 18:22:15 10° NW 18:27:38 45° WSW 18:32:59 10° S
Cosmos 1315 Rocket 2.9 18:27:07 10° NNW 18:31:14 87° W 18:35:21 10° S
Cosmos 44 3.3 18:27:09 10° SSW 18:31:21 49° ESE 18:35:32 10° NE
Cosmos 1805 Rocket 3.9 18:27:53 10° N 18:32:06 43° ENE 18:36:18 10° SSE
Cosmos 1980 4.1 18:28:31 10° NNW 18:33:55 44° NE 18:39:18 10° SE
Cosmos 1484 Rocket 3.5 18:32:21 10° S 18:36:00 55° W 18:39:42 10° NNW
Resurs 01 Rocket 3.6 18:37:08 10° ENE 18:37:52 11° NE 18:38:44 10° NE
Cosmos 1703 4.4 18:35:50 10° NNW 18:39:38 49° W 18:43:24 10° S
FENGYUN 3A 4.0 18:34:42 10° SE 18:39:48 45° ENE 18:44:57 10° N
Cosmos 1908 3.2 18:36:40 10° S 18:40:32 65° E 18:44:24 10° NNE
Gbstr 26 Del rocket 4.5 18:36:19 10° WNW 18:40:48 45° SSW 18:46:18 10° SE
Cosmos 1666 Rocket 4.1 18:37:45 10° N 18:41:46 35° ENE 18:45:45 10° SE
SMAP 4.1 18:39:28 10° S 18:44:00 51° W 18:48:33 10° NNW
Cosmos 1633 Rocket 3.7 18:40:50 10° N 18:44:51 33° ENE 18:48:51 10° SE
Cosmos 1821 Rocket 4.2 18:40:27 10° SSE 18:46:20 48° E 18:52:21 10° NNE
COSMOS 2428 3.2 18:42:15 10° NNW 18:47:54 66° WSW 18:53:31 10° SSE
YAOGAN 1 2.8 18:44:02 10° S 18:48:21 75° WSW 18:52:43 10° NNW
Cosmos 2333 Rocket 2.2 18:44:49 10° NNW 18:50:36 76° ENE 18:56:21 10° SSE
Cosmos 2084 3.4 18:47:14 10° NW 18:51:01 70° SW 18:54:52 10° SSE
Cosmos 1331 Rocket 4.1 18:46:04 10° NNW 18:51:12 52° ENE 18:56:15 10° SE
H-2A R/B 3.8 18:48:12 10° ESE 18:51:28 25° ENE 18:54:44 10° N
USA 234 3.9 18:45:31 11° ENE 18:51:29 46° N 18:57:40 10° WNW
Cosmos 2219 3.3 18:47:52 10° S 18:53:30 58° ESE 18:59:07 10° NE
Lacrosse 5 rocket 2.7 18:50:13 10° WNW 18:54:05 28° N 18:56:52 15° NE
SJ-6B 4.0 18:53:23 17° E 18:54:45 21° ENE 18:57:38 10° NNE
Thor Agena Rocket 4.4 18:51:27 10° NE 18:55:41 26° E 18:59:52 10° SSE
Cosmos 2297 Rocket 3.3 18:53:22 10° SSE 18:57:28 21° E 19:00:00 16° ENE
NOAA 12 4.1 18:53:46 10° SSE 18:59:02 68° ENE 19:04:21 10° N
Cosmos 1300 3.3 18:56:27 10° SSE 18:59:56 35° E 19:03:27 10° NNE
Cosmos 2221 2.5 18:57:07 10° S 19:01:27 87° E 19:05:52 10° N
Cosmos 1892 4.0 18:59:58 10° NNE 19:02:47 20° ENE 19:02:47 20° ENE
BREEZE-M DEB (TANK) 4.5 19:03:39 10° W 19:07:44 53° SSW 19:22:56 10° SE
METEOR-M 4.5 19:05:53 10° S 19:11:12 69° WSW 19:16:33 10° NNW
SKYMED 2 3.5 19:07:59 10° NNE 19:12:22 85° E 19:16:43 10° SSW
NOSS 0 Rocket 4.0 19:06:58 10° NNW 19:13:11 84° WSW 19:19:19 10° SSE
Cosmos 2219 Rocket 2.6 19:07:40 10° NNW 19:13:14 66° WSW 19:18:47 10° SSE
Cosmos 2123 Rocket 4.0 19:07:16 10° N 19:13:29 65° ENE 19:19:44 10° SSE
Cosmos 44 Rocket 3.3 19:11:09 10° SW 19:15:50 77° NW 19:20:16 12° NE
Cosmos 967 Rocket 4.5 19:09:38 10° NW 19:16:07 73° NE 19:22:09 12° SE
DMSP B5D1-3 4.5 19:13:40 10° NNE 19:18:46 61° E 19:23:51 10° S
Iridium 4 Rocket 3.8 19:13:48 10° S 19:19:35 88° W 19:25:33 10° N
Abrixas rocket 2.9 19:17:16 10° W 19:20:27 47° SSW 19:21:44 29° SE
Cosmos 1726 2.0 19:17:02 10° S 19:20:44 88° W 19:24:26 10° N
Cosmos 1605 Rocket 4.2 19:15:15 10° SSE 19:20:59 45° E 19:26:45 10° NNE
Cosmos 1302 Rocket 4.1 19:16:49 10° NNW 19:21:59 55° ENE 19:25:52 17° SE
HJ-1C 4.1 19:22:25 34° ENE 19:22:25 34° ENE 19:25:21 10° N
CZ-2D R/B 4.5 19:22:51 25° NE 19:22:51 25° NE 19:25:29 10° N
Cosmos 1269 Rocket 4.1 19:17:41 10° SSW 19:22:58 82° WNW 19:28:18 10° NNE
Cosmos 494 Rocket 4.0 19:26:11 10° S 19:31:08 53° ESE 19:36:00 11° NNE
FengYun 1-2 T 4.1 19:26:57 10° SSE 19:32:24 71° ENE 19:37:53 10° NNW
FREGAT/IRIS 2.4 19:33:13 71° ESE 19:33:23 74° ENE 19:36:23 10° N
Spot 2 Rocket 4.2 19:34:34 31° ENE 19:34:47 31° ENE 19:39:12 10° N
Abrixas 4.1 19:35:24 10° WSW 19:36:19 21° WSW 19:36:19 21° WSW
CZ-3A R/B 4.5 19:08:29 10° WNW 19:40:12 76° NNE 19:44:44 29° E
Cosmos 1470 Rocket 3.5 19:36:02 10° N 19:40:30 61° ENE 19:42:35 29° SSE
MOS 1-B Rocket 4.1 19:37:53 22° SE 19:41:39 54° ENE 19:48:01 10° N
ALOS 3.1 19:40:50 10° S 19:45:23 51° W 19:49:58 10° NNW
Meteor 2-2 Rocket 4.1 19:42:33 10° S 19:48:11 74° E 19:53:48 10° NNE
In-Cosmos 22 Rocket 4.5 19:43:46 10° NNW 19:49:31 73° W 19:55:19 10° S
Sich 1 4.1 19:45:34 10° NNW 19:49:48 47° W 19:54:02 10° SSW
Cosmos 1447 Rocket 4.4 19:43:59 10° N 19:50:20 68° ENE 19:56:33 10° SSE
BREEZE-M DEB (TANK) 3.2 19:42:47 10° W 19:52:04 61° SSW 19:53:13 44° SE
Cosmos 2237 Rocket 2.7 19:47:33 10° NW 19:53:10 60° WSW 19:58:45 10° S
Meteor 1-27 4.3 19:48:07 10° SSE 19:53:39 52° E 19:59:17 10° NNE
USA 32 3.9 19:50:04 10° N 19:55:20 77° E 20:00:22 11° S
COSMO-SKYMED 1 4.3 19:56:21 10° N 20:00:17 34° WNW 20:04:11 10° SW
CZ-4C R/B 2.7 19:58:06 10° WSW 20:03:28 59° NW 20:07:47 20° NE
Cosmos 2227 Rocket 2.0 19:58:20 10° SSW 20:03:59 76° ESE 20:07:06 28° NE
SL-8 R/B 3.5 20:00:47 10° W 20:05:37 82° S 20:06:03 73° SE
SL-16 R/B 2.1 20:01:43 10° NNW 20:07:27 83° ENE 20:09:03 49° SE
H-2A R/B 4.4 20:09:55 10° NNE 20:09:55 10° NNE 20:10:02 10° NNE
Cosmos 1603 4.4 20:02:47 10° NNW 20:07:42 36° NE 20:07:42 36° NE
Envisat 3.0 20:10:12 59° NE 20:10:12 59° NE 20:14:56 10° N
ATLAS 5 CENTAUR R/B 3.3 20:07:25 10° NNW 20:12:21 30° NNE 20:12:40 30° NE
Resurs 1-3 4.4 20:13:49 40° N 20:13:49 40° N 20:16:47 10° N
BREEZE M DEB (TANK) 3.7 20:09:28 10° W 20:11:53 25° WSW 20:11:53 25° WSW
Resurs 01 Rocket 2.2 20:14:43 45° N 20:14:43 45° N 20:17:55 10° N
Cosmos 2251 Rocket 3.4 20:13:03 10° SSW 20:18:22 88° WNW 20:20:51 33° NNE
H-2A R/B 4.5 20:22:49 15° SSW 20:25:36 32° W 20:29:11 10° NNW
Cosmos 1328 Rocket 4.2 20:21:18 10° SSW 20:25:36 53° WNW 20:29:54 10° N
Cosmos 1933 Rocket 4.2 20:23:18 10° NNW 20:27:34 53° W 20:28:09 49° SW
Cosmos 2228 Rocket 3.6 20:24:05 10° SSW 20:28:36 61° WNW 20:33:10 10° N
SJ-6B 4.1 20:29:03 35° WSW 20:29:15 35° W 20:32:44 10° NNW
USA 234 3.5 20:32:52 50° NE 20:33:54 55° NNE 20:40:16 10° WNW
Lacrosse 5 rocket 2.8 20:29:53 10° NW 20:32:33 33° NNW 20:32:33 33° NNW
Thor Agena Rocket 4.3 20:30:20 10° N 20:35:14 49° WNW 20:40:05 10° SW
Meteor 2-3 Rocket 4.3 20:30:07 10° NNW 20:35:45 56° W 20:39:20 22° SSW
Cosmos 1892 4.5 20:35:15 10° NNW 20:37:52 31° WNW 20:37:52 31° WNW
Cosmos 2297 Rocket 2.3 20:35:18 10° SW 20:40:56 72° WNW 20:41:54 59° N
Cosmos 2082 4.1 20:47:35 10° SW 20:53:14 61° WNW 20:53:57 56° NNW
Cosmos 2227 Rocket 4.1 21:44:02 10° W 21:48:40 25° NW 21:49:00 25° NW
SL-16 R/B 4.4 21:47:08 10° WNW 21:50:51 18° W 21:50:58 18° W
CZ-4C R/B 4.2 21:48:28 10° WNW 21:52:59 26° NNW 21:52:59 26° NNW
ATLAS 5 CENTAUR R/B 4.1 21:51:54 10° NW 21:54:12 26° NW 21:54:12 26° NW
